Location: Darmstadt
(49.8706°N, 8.6494°E)
Time: 06:36:43
(UTC+01:00)

SL-4 R/B - Pass Details

Date: 31 October 2020
Orbit: 428 x 665 km, 51.6° (Epoch: 03 December)

Event Time Altitude Azimuth Distance (km) Brightness Sun altitude
Rises 19:55:31 0° 285° (WNW) 2,473 6.6 -28.1°
Reaches altitude 10° 19:57:54 10° 271° (W) 1,630 5.3 -28.4°
Enters shadow 19:59:45 20° 243° (WSW) 1,166 4.1 -28.7°
